SPMAZ LIPQ-LYTV

Flight info

Callsign SPMAZ
Flight time N/A
Altitude 25000
Route RCH DCT SORDO DCT DIGOT DCT TRILJ DCT DOPUT DCT TAZ
Aircraft P46T/L-SBDGRWY/SB1

Departure

Time N/A
Airport Trieste Airport (LIPQ)

Arrival

Time 2026-05-05 18:55
Airport Tivat Airport (LYTV)
Time Latitude Longitude Altitude Speed Heading
2026-05-05 18:42 42.22112 18.96304 16054 ft 235 kts 136°
2026-05-05 18:42 42.20904 18.97758 15326 ft 230 kts 145°
2026-05-05 18:43 42.19670 18.99089 14620 ft 228 kts 146°
2026-05-05 18:43 42.18429 19.00417 13913 ft 226 kts 146°
2026-05-05 18:43 42.17199 19.01736 13131 ft 224 kts 146°
2026-05-05 18:43 42.15973 19.02936 12383 ft 216 kts 159°
2026-05-05 18:44 42.14548 19.03191 11657 ft 202 kts 195°
2026-05-05 18:44 42.13391 19.02286 10960 ft 193 kts 228°
2026-05-05 18:44 42.12575 19.00864 10252 ft 190 kts 234°
2026-05-05 18:44 42.11835 18.99413 9510 ft 188 kts 236°
2026-05-05 18:45 42.11106 18.97944 8736 ft 188 kts 236°
2026-05-05 18:45 42.10386 18.96486 7988 ft 187 kts 236°
2026-05-05 18:45 42.09672 18.95038 7261 ft 187 kts 236°
2026-05-05 18:45 42.08955 18.93575 6538 ft 187 kts 236°
2026-05-05 18:46 42.08269 18.92158 6235 ft 179 kts 238°
2026-05-05 18:46 42.08057 18.90519 6099 ft 186 kts 279°
2026-05-05 18:46 42.08742 18.89049 5994 ft 194 kts 319°
2026-05-05 18:46 42.09982 18.88309 5894 ft 198 kts 347°
2026-05-05 18:47 42.11330 18.87968 5776 ft 199 kts 348°
2026-05-05 18:47 42.12719 18.87544 5321 ft 205 kts 345°
2026-05-05 18:47 42.14088 18.87046 4775 ft 204 kts 344°
2026-05-05 18:47 42.15419 18.86554 4224 ft 192 kts 344°
2026-05-05 18:48 42.16643 18.86033 3913 ft 172 kts 337°
2026-05-05 18:48 42.17711 18.85461 3793 ft 165 kts 338°
2026-05-05 18:48 42.18791 18.84905 3673 ft 166 kts 338°
2026-05-05 18:48 42.19867 18.84351 3552 ft 167 kts 338°
2026-05-05 18:49 42.20965 18.83788 3428 ft 169 kts 338°
2026-05-05 18:49 42.22054 18.83227 3300 ft 169 kts 338°
2026-05-05 18:49 42.23154 18.82660 3174 ft 168 kts 338°
2026-05-05 18:49 42.24250 18.82095 3043 ft 168 kts 339°
2026-05-05 18:50 42.25324 18.81540 2921 ft 167 kts 339°
2026-05-05 18:50 42.26416 18.80978 2795 ft 166 kts 339°
2026-05-05 18:50 42.27496 18.80419 2672 ft 166 kts 339°
2026-05-05 18:50 42.28565 18.79866 2600 ft 163 kts 339°
2026-05-05 18:51 42.29610 18.79329 2552 ft 160 kts 340°
2026-05-05 18:51 42.30657 18.78813 2404 ft 163 kts 341°
2026-05-05 18:51 42.31736 18.78313 2213 ft 163 kts 342°
2026-05-05 18:51 42.32778 18.77862 2002 ft 148 kts 343°
2026-05-05 18:52 42.33690 18.77501 1709 ft 127 kts 344°
2026-05-05 18:52 42.34511 18.77171 1318 ft 119 kts 345°
2026-05-05 18:52 42.35247 18.76830 1050 ft 104 kts 339°
2026-05-05 18:52 42.35914 18.76469 886 ft 101 kts 338°
2026-05-05 18:53 42.36559 18.76095 717 ft 101 kts 338°
2026-05-05 18:53 42.37202 18.75722 572 ft 102 kts 335°
2026-05-05 18:53 42.37820 18.75276 465 ft 102 kts 329°
2026-05-05 18:53 42.38412 18.74735 361 ft 102 kts 324°
2026-05-05 18:54 42.38968 18.74117 252 ft 103 kts 320°
2026-05-05 18:54 42.39501 18.73468 108 ft 104 kts 319°
2026-05-05 18:54 42.40036 18.72843 24 ft 93 kts 320°
2026-05-05 18:54 42.40454 18.72345 14 ft 66 kts 316°
2026-05-05 18:55 42.40739 18.72008 11 ft 43 kts 319°
2026-05-05 18:55 42.40903 18.71814 12 ft 22 kts 319°
2026-05-05 18:55 42.40959 18.71796 15 ft 10 kts 49°
2026-05-05 18:55 42.40990 18.71844 13 ft 3 kts 51°
2026-05-05 18:56 42.40991 18.71846 13 ft 0 kts 51°
2026-05-05 18:56 42.40999 18.71882 14 ft 8 kts 118°
2026-05-05 18:56 42.40954 18.71933 15 ft 8 kts 138°
2026-05-05 18:57 42.40911 18.71986 12 ft 8 kts 136°
2026-05-05 18:57 42.40917 18.72020 13 ft 4 kts 18°
2026-05-05 18:57 42.40935 18.72002 12 ft 0 kts 318°